• In Latvia
  • List of Countries
  • For 7 days
  • Water Temperature
  • Satellite Maps
  • Weather Map
  • Weather Widgets
  • user-avatar
    Login

    Hourly Weather Valmiera

    Today, 14 December, Thursday

    Time Temperature Precipitation Wind Pressure Humidity
    00:00 -2°C° 0 mm 5 mps 750 mmHg 86%
    01:00 -3°C° 0 mm 4 mps 750 mmHg 88%
    02:00 -4°C° 0 mm 4 mps 749 mmHg 89%
    03:00 -4°C° 0 mm 4 mps 748 mmHg 88%
    04:00 -4°C° 0 mm 4 mps 748 mmHg 87%
    05:00 -5°C° 0 mm 5 mps 748 mmHg 85%
    06:00 -5°C° 0 mm 5 mps 747 mmHg 84%
    07:00 -5°C° 0 mm 5 mps 747 mmHg 83%
    08:00 -4°C° 0 mm 4 mps 747 mmHg 83%
    09:00 -5°C° 0 mm 5 mps 746 mmHg 81%
    10:00 -5°C° 0 mm 5 mps 746 mmHg 79%
    11:00 -4°C° 0 mm 5 mps 745 mmHg 76%
    12:00 -4°C° 0 mm 5 mps 745 mmHg 76%
    13:00 -4°C° 0 mm 6 mps 744 mmHg 77%
    14:00 -4°C° 0 mm 5 mps 743 mmHg 77%
    15:00 -4°C° 0 mm 6 mps 743 mmHg 78%
    16:00 -4°C° 0 mm 6 mps 742 mmHg 79%
    17:00 -4°C° 0 mm 6 mps 742 mmHg 81%
    18:00 -4°C° 0.2 mm 6 mps 741 mmHg 81%
    19:00 -3°C° 0.2 mm 6 mps 741 mmHg 82%
    20:00 -2°C° 0.2 mm 5 mps 741 mmHg 83%
    21:00 -2°C° 0.1 mm 5 mps 740 mmHg 84%
    22:00 -1°C° 0.1 mm 5 mps 740 mmHg 85%
    23:00 -1°C° 0.1 mm 4 mps 740 mmHg 85%

    Tomorrow, 15 December, Friday

    Time Temperature Precipitation Wind Pressure Humidity
    00:00 -1°C° 0.1 mm 4 mps 739 mmHg 87%
    01:00 -1°C° 0.1 mm 4 mps 739 mmHg 88%
    02:00 0°C° 0.1 mm 3 mps 739 mmHg 89%
    03:00 0°C° 0.4 mm 3 mps 739 mmHg 90%
    04:00 0°C° 0.4 mm 3 mps 739 mmHg 91%
    05:00 0°C° 0.4 mm 3 mps 738 mmHg 92%
    06:00 0°C° 0.7 mm 3 mps 739 mmHg 92%
    07:00 0°C° 0.7 mm 3 mps 739 mmHg 92%
    08:00 -1°C° 0.7 mm 4 mps 739 mmHg 92%
    09:00 -1°C° 0.2 mm 4 mps 740 mmHg 90%
    10:00 -1°C° 0.2 mm 4 mps 740 mmHg 88%
    11:00 -1°C° 0.2 mm 5 mps 741 mmHg 86%
    12:00 0°C° 0.1 mm 5 mps 741 mmHg 85%
    13:00 0°C° 0.1 mm 5 mps 742 mmHg 84%
    14:00 0°C° 0.1 mm 5 mps 742 mmHg 83%
    15:00 -1°C° 0.1 mm 5 mps 742 mmHg 85%
    16:00 -1°C° 0.1 mm 4 mps 743 mmHg 86%
    17:00 -1°C° 0.1 mm 4 mps 743 mmHg 88%
    18:00 -1°C° 0 mm 4 mps 743 mmHg 88%
    19:00 -1°C° 0 mm 4 mps 743 mmHg 89%
    20:00 -2°C° 0 mm 4 mps 744 mmHg 89%
    21:00 -2°C° 0 mm 4 mps 744 mmHg 90%
    22:00 -2°C° 0 mm 4 mps 744 mmHg 90%
    23:00 -1°C° 0 mm 3 mps 744 mmHg 91%

    Day after tomorrow, 16 December, Saturday

    Time Temperature Precipitation Wind Pressure Humidity
    00:00 -1°C° 0 mm 3 mps 744 mmHg 92%
    01:00 -2°C° 0 mm 3 mps 744 mmHg 92%
    02:00 -2°C° 0 mm 3 mps 744 mmHg 93%
    03:00 -2°C° 0 mm 2 mps 744 mmHg 93%
    04:00 -2°C° 0 mm 2 mps 743 mmHg 94%
    05:00 -2°C° 0 mm 2 mps 743 mmHg 94%
    06:00 0°C° 0 mm 1 mps 743 mmHg 94%
    07:00 0°C° 0 mm 1 mps 743 mmHg 94%
    08:00 0°C° 0 mm 1 mps 743 mmHg 95%
    09:00 0°C° 0 mm 1 mps 743 mmHg 94%
    10:00 0°C° 0 mm 1 mps 743 mmHg 94%
    11:00 -1°C° 0 mm 0 mps 744 mmHg 93%
    12:00 +1°C° 0 mm 1 mps 744 mmHg 93%
    13:00 +1°C° 0 mm 1 mps 744 mmHg 93%
    14:00 +1°C° 0 mm 1 mps 744 mmHg 93%
    15:00 +1°C° 0 mm 1 mps 744 mmHg 93%
    16:00 0°C° 0 mm 1 mps 745 mmHg 94%
    17:00 0°C° 0 mm 1 mps 745 mmHg 95%
    18:00 0°C° 0 mm 1 mps 745 mmHg 95%
    19:00 0°C° 0 mm 1 mps 746 mmHg 95%
    20:00 0°C° 0 mm 1 mps 746 mmHg 95%
    21:00 0°C° 0 mm 1 mps 746 mmHg 95%
    22:00 -2°C° 0 mm 2 mps 747 mmHg 95%
    23:00 -2°C° 0 mm 2 mps 747 mmHg 95%

    17 December, Sunday

    Time Temperature Precipitation Wind Pressure Humidity
    00:00 -1°C° 0.1 mm 2 mps 747 mmHg 95%
    01:00 -1°C° 0.1 mm 2 mps 748 mmHg 95%
    02:00 -1°C° 0.1 mm 2 mps 748 mmHg 95%
    03:00 -1°C° 0.1 mm 2 mps 748 mmHg 95%
    04:00 -1°C° 0.1 mm 2 mps 749 mmHg 95%
    05:00 -1°C° 0.1 mm 2 mps 749 mmHg 94%
    06:00 -1°C° 0.1 mm 3 mps 749 mmHg 94%
    07:00 -1°C° 0.1 mm 3 mps 750 mmHg 93%
    08:00 -1°C° 0.1 mm 3 mps 750 mmHg 92%
    09:00 -1°C° 0 mm 3 mps 751 mmHg 92%
    10:00 -1°C° 0 mm 3 mps 752 mmHg 91%
    11:00 -1°C° 0 mm 3 mps 752 mmHg 90%
    12:00 -1°C° 0 mm 3 mps 753 mmHg 90%
    13:00 -1°C° 0 mm 2 mps 753 mmHg 90%
    14:00 -1°C° 0 mm 2 mps 753 mmHg 90%
    15:00 -1°C° 0 mm 2 mps 754 mmHg 91%
    16:00 -2°C° 0 mm 2 mps 754 mmHg 92%
    17:00 -2°C° 0 mm 2 mps 754 mmHg 93%
    18:00 -2°C° 0 mm 2 mps 755 mmHg 92%
    19:00 -2°C° 0 mm 2 mps 755 mmHg 92%
    20:00 -2°C° 0 mm 2 mps 755 mmHg 91%
    21:00 -2°C° 0 mm 2 mps 756 mmHg 91%
    22:00 -3°C° 0 mm 2 mps 756 mmHg 91%
    23:00 -3°C° 0 mm 2 mps 756 mmHg 91%

    18 December, Monday

    Time Temperature Precipitation Wind Pressure Humidity
    00:00 -1°C° 0 mm 1 mps 756 mmHg 91%
    01:00 -1°C° 0 mm 1 mps 756 mmHg 91%
    02:00 -2°C° 0 mm 1 mps 756 mmHg 92%
    03:00 -2°C° 0 mm 1 mps 757 mmHg 92%
    04:00 -2°C° 0 mm 1 mps 757 mmHg 92%
    05:00 -2°C° 0 mm 1 mps 757 mmHg 92%
    06:00 -2°C° 0 mm 1 mps 757 mmHg 92%
    07:00 -2°C° 0 mm 1 mps 757 mmHg 91%
    08:00 -3°C° 0 mm 0 mps 757 mmHg 91%
    09:00 -2°C° 0 mm 0 mps 757 mmHg 90%
    10:00 -1°C° 0 mm 1 mps 758 mmHg 88%
    11:00 -1°C° 0 mm 1 mps 758 mmHg 87%
    12:00 -1°C° 0 mm 1 mps 758 mmHg 87%
    13:00 0°C° 0 mm 1 mps 758 mmHg 87%
    14:00 0°C° 0 mm 1 mps 758 mmHg 87%
    15:00 0°C° 0 mm 1 mps 758 mmHg 89%
    16:00 -3°C° 0 mm 2 mps 759 mmHg 91%
    17:00 -3°C° 0 mm 2 mps 759 mmHg 93%
    18:00 -3°C° 0 mm 2 mps 759 mmHg 93%
    19:00 -3°C° 0 mm 2 mps 760 mmHg 93%
    20:00 -3°C° 0 mm 2 mps 760 mmHg 94%
    21:00 -3°C° 0 mm 2 mps 760 mmHg 94%
    22:00 -4°C° 0 mm 2 mps 760 mmHg 94%
    23:00 -4°C° 0 mm 2 mps 760 mmHg 94%

    19 December, Tuesday

    Time Temperature Precipitation Wind Pressure Humidity
    00:00 -4°C° 0 mm 2 mps 761 mmHg 93%
    01:00 -4°C° 0 mm 2 mps 761 mmHg 93%
    02:00 -4°C° 0 mm 2 mps 761 mmHg 92%
    03:00 -5°C° 0 mm 3 mps 761 mmHg 91%
    04:00 -5°C° 0 mm 3 mps 761 mmHg 91%
    05:00 -5°C° 0 mm 3 mps 762 mmHg 90%
    06:00 -5°C° 0 mm 3 mps 762 mmHg 91%
    07:00 -4°C° 0 mm 2 mps 762 mmHg 91%
    08:00 -5°C° 0 mm 2 mps 762 mmHg 92%
    09:00 -4°C° 0 mm 2 mps 763 mmHg 91%
    10:00 -4°C° 0 mm 2 mps 763 mmHg 90%
    11:00 -4°C° 0 mm 2 mps 763 mmHg 89%
    12:00 -3°C° 0 mm 2 mps 764 mmHg 88%
    13:00 -4°C° 0 mm 3 mps 764 mmHg 87%
    14:00 -4°C° 0 mm 3 mps 764 mmHg 86%
    15:00 -4°C° 0 mm 2 mps 764 mmHg 88%
    16:00 -4°C° 0 mm 2 mps 764 mmHg 90%
    17:00 -5°C° 0 mm 2 mps 765 mmHg 92%
    18:00 -5°C° 0 mm 2 mps 765 mmHg 93%
    19:00 -5°C° 0 mm 2 mps 765 mmHg 93%
    20:00 -5°C° 0 mm 2 mps 765 mmHg 93%
    21:00 -6°C° 0 mm 2 mps 765 mmHg 93%
    22:00 -6°C° 0 mm 2 mps 765 mmHg 93%
    23:00 -4°C° 0 mm 1 mps 766 mmHg 93%
    Show more